Location: Wolf Lake
(46.8518°N, 80.6381°W)
Time: 06:25:21
(UTC-04:00)

ISS - Visible Passes

Search period start: 28 May 2022 00:00
Search period end: 07 June 2022 00:00
Orbit: 414 x 421 km, 51.6° (Epoch: 28 May)

Date Brightness Start Highest point End Pass type
(mag) Time Alt. Az. Time Alt. Az. Time Alt. Az.
28 May -2.7 22:48:51 10° WNW 22:51:53 32° SW 22:53:07 24° S visible
29 May -3.3 22:00:33 10° WNW 22:03:49 51° SSW 22:06:43 12° SE visible
30 May -1.5 22:50:10 10° W 22:51:59 14° SW 22:53:16 12° SSW visible
31 May -1.9 22:01:20 10° W 22:03:59 22° SW 22:06:37 10° S visible
